Presure
271 217 256 221 220 218 216 223 206 230 233 239 226 253 230 239 209 190 207 204 213 213 223 221 220 228 220 219 238 231 198 193 193 204 205 208 209 206 211 202 204 210 220 217
258 254 253 258 265 250 239 257 244 231 237 239 239 234 224 203 210 233 223 206 205 222 214 223 218 220 198 218 218 197 199 201 198 200 225 226 242 236 219 227 224 227 234 224
243 253 245 227 231 230 240 225 226 229 230 227 198 196 197 231 217 212 210 211 210 218 232 222 206 229 217 225 216 203 229 218 221 238 224 222 226 217 221 218 224 245 233 221
295 288 276 243 245 228 262 231 258 232 214 219 218 217 218 236 238 237 231 218 242 219 231 226 219 230 227 223 217 225 225 221 220 227 230 220 224 214 223 228 227 230 222 219
392 415 387 353 298 283 277 288 273 272 276 271 268 267 258 263 261 255 242 256 256 257 250 256 230 247 228 241 229 234 231 229 226 230 234 236 230 235 229 235 222 228 234 244
421 411 396 388 396 391 359 338 321 331 289 283 279 272 268 265 256 259 256 254 261 250 259 255 258 256 244 245 237 239 243 239 242 246 242 235 259 139 237 240 242 241 231 247
406 404 406 392 381 373 369 361 367 352 345 320 321 318 307 289 271 280 274 269 267 271 275 269 267 267 266 260 258 253 249 247 253 256 256 192 257 254 256 254 243 259 262 260
388 394 402 404 400 388 375 369 362 335 336 337 337 329 327 337 336 343 315 314 314 311 317 317 316 313 296 278 294 272 272 268 268 263 266 290 266 262 270 288 283 296 281 325
350 383 383 379 376 377 383 389 363 350 345 340 337 338 325 327 332 327 324 325 328 321 315 315 323 323 313 333 329 323 316 316 315 316 315 323 329 321 326 411 383 370 338 332
341 328 374 372 369 371 371 359 367 371 372 362 353 340 336 334 329 325 329 323 324 315 317 316 317 317 315 315 310 302 309 310 308 321 326 340 331 329 337 320 307 346 344 321
336 332 378 369 362 357 354 354 357 358 356 353 349 358 355 349 344 334 332 337 326 320 318 316 314 317 311 320 340 349 339 328 318 320 326 340 336 325 323 323 316 317 314 321
338 323 315 316 314 323 323 320 348 359 353 349 350 349 347 343 328 331 337 336 333 324 313 317 315 317 341 338 329 323 315 306 308 312 300 286 289 297 302 300 303 317 327 316
334 322 313 317 321 315 314 317 323 330 326 350 346 340 341 343 338 336 332 333 328 337 332 331 329 326 318 317 305 289 278 283 291 315 298 297 290 290 289 295 305 313 313 301
330 325 315 304 305 308 312 322 320 339 357 370 368 337 333 334 339 344 342 337 340 333 332 329 326 326 323 310 316 298 292 294 309 308 297 293 302 299 302 306 299 297 288 289
326 320 312 310 303 308 312 321 336 358 361 371 372 375 339 337 335 332 330 327 330 331 321 332 322 315 305 311 297 289 283 289 286 298 299 296 290 295 306 301 302 289 285 282
325 309 313 310 305 307 318 359 358 355 355 362 362 356 368 360 347 343 338 329 331 334 319 313 317 311 309 298 289 290 290 286 286 274 290 292 298 303 311 284 284 292 282 274
324 309 309 305 312 319 353 353 343 343 350 353 359 382 391 397 388 343 339 328 324 321 327 332 320 304 314 294 279 280 275 281 281 278 284 290 290 296 296 308 277 275 280 282
316 312 311 315 331 347 346 345 349 356 357 360 362 353 352 367 387 350 337 323 329 320 321 317 325 326 302 290 282 277 275 280 281 285 284 288 279 281 287 289 293 306 286 282
317 326 336 342 355 342 340 349 341 347 352 359 365 370 373 386 380 372 332 325 316 314 308 317 307 296 311 288 274 277 277 278 270 273 281 281 283 287 286 288 293 289 294 301
348 349 359 358 346 349 346 354 365 367 370 385 401 401 394 400 383 395 323 313 305 313 310 303 307 319 301 291 283 283 277 281 280 274 280 295 295 281 290 291 291 305 296 294
362 374 364 367 372 374 384 395 402 418 445 453 445 434 402 394 393 351 318 302 299 305 303 304 304 300 299 299 302 288 276 273 275 281 292 281 278 281 282 290 294 309 296 331
392 390 397 415 413 384 387 349 341 338 336 335 332 326 328 331 334 321 305 300 299 295 293 298 291 287 287 283 280 279 284 287 291 274 152 270 285 290 291 302 319 348 401 392
376 347 330 331 322 322 319 315 325 321 321 320 317 321 319 308 306 302 298 291 287 287 296 284 275 279 289 290 283 287 293 268 263 273 271 285 270 304 320 352 369 355 421 430
331 324 316 315 317 316 320 316 320 314 323 323 317 309 303 255 292 274 291 288 287 290 279 287 287 281 285 298 303 279 260 274 271 270 282 298 307 331 371 351 405 423 410 318
325 323 298 310 315 322 301 283 288 315 309 312 303 294 299 290 287 292 297 290 293 290 300 296 299 292 264 278 277 266 265 285 280 270 289 309 328 341 337 334 383 340 332 349
322 317 326 328 319 306 310 317 307 298 281 275 273 288 269 275 286 293 277 303 294 298 284 278 276 275 280 282 283 282 265 292 296 287 306 328 320 328 327 327 334 340 341 332
326 317 322 326 325 314 301 294 290 287 290 289 283 305 280 286 275 318 303 282 282 280 279 283 284 291 263 283 296 300 290 288 308 299 325 316 314 326 335 339 334 335 331 321
Wind_Speed
139 152 143 154 153 149 149 156 139 143 145 140 144 129 123 125 125 110 125 124 125 123 118 117 118 114 117 115 107 112 110 104 105 112 111 113 111 110 109 110 107 106 106 99
136 137 136 135 134 136 143 135 139 143 138 139 133 135 127 122 128 127 127 126 127 126 123 121 117 118 111 116 115 107 113 114 110 105 105 111 108 106 106 109 112 103 104 105
136 138 139 136 138 139 139 137 136 137 138 137 123 122 121 139 130 132 131 131 130 132 129 125 119 118 121 118 118 114 112 116 115 108 106 110 113 108 105 107 110 111 99 99
145 143 143 143 141 143 141 144 140 140 136 140 141 143 144 141 139 138 136 137 133 133 132 130 125 125 122 121 120 121 121 119 116 115 109 114 114 114 114 110 109 110 99 106
95 85 104 124 141 144 142 144 139 137 137 136 137 137 137 135 134 136 142 137 134 131 132 130 132 129 126 126 123 123 123 122 125 123 121 120 118 119 108 116 109 119 120 112
56 66 75 78 79 81 100 119 129 126 131 142 145 138 138 136 137 137 138 136 135 134 132 132 130 130 126 126 125 124 126 125 124 126 122 123 128 57 119 123 122 119 108 111
45 48 51 62 70 77 77 80 77 89 94 119 116 117 132 135 134 136 133 131 132 134 136 132 128 128 124 123 124 126 126 124 127 126 125 89 114 117 119 119 112 115 116 114
44 42 39 39 44 55 64 67 71 84 81 83 80 83 87 87 90 81 103 108 110 115 110 105 101 99 120 122 115 121 122 124 123 125 126 120 119 120 122 116 114 106 113 89
41 37 38 39 39 39 40 44 62 70 74 73 77 80 80 81 79 77 81 81 81 84 90 93 88 80 86 70 73 76 80 79 82 82 86 85 80 86 84 40 42 45 68 68
37 43 35 34 32 33 33 40 40 43 49 60 67 72 73 74 72 76 77 76 75 74 73 74 71 68 67 68 68 73 72 73 74 55 51 36 38 49 43 48 66 46 46 52
35 33 28 28 27 31 34 37 39 41 42 48 50 51 55 61 66 72 69 68 69 67 69 70 69 66 64 61 41 37 44 45 46 39 32 25 23 30 33 33 41 42 44 37
32 33 35 32 33 28 31 32 30 36 40 42 42 45 46 48 57 59 60 61 59 60 65 65 61 61 47 44 31 27 32 33 34 27 26 35 39 36 37 39 38 30 25 22
32 32 36 32 27 30 31 33 32 32 34 38 41 43 47 50 55 58 58 55 54 50 54 54 49 31 41 35 34 40 51 50 39 26 35 37 41 40 40 37 32 24 26 30
31 32 30 34 32 30 31 33 35 36 34 30 39 45 47 49 49 50 51 52 51 50 48 53 42 43 41 32 35 26 38 34 29 29 35 36 35 39 39 34 34 29 29 27
30 29 29 28 31 31 34 37 36 36 35 29 32 39 52 51 49 47 45 45 45 46 48 43 42 39 34 34 33 39 44 41 35 24 29 33 35 34 29 26 28 28 28 35
29 28 26 27 28 32 36 31 30 30 33 31 30 36 41 53 46 44 43 41 43 46 50 43 43 44 37 38 39 45 45 39 35 36 33 35 36 35 30 34 32 35 39 43
27 24 26 26 31 34 28 28 27 30 31 29 28 24 21 28 39 42 40 42 43 43 45 48 45 43 45 45 39 41 38 37 35 36 34 33 33 34 33 31 41 41 43 47
19 24 26 31 33 27 26 25 26 25 24 24 22 24 30 32 27 41 40 40 41 38 37 35 38 48 50 42 42 42 41 36 35 36 35 31 33 32 32 32 35 37 47 49
22 28 28 27 25 23 25 24 24 24 25 24 22 22 26 26 32 41 40 38 35 38 34 35 40 38 41 37 43 45 41 37 39 40 37 36 37 39 36 37 41 45 45 46
23 23 24 19 20 21 22 23 23 21 22 25 25 21 13 12 18 26 39 34 31 31 36 36 31 30 34 39 48 45 41 42 41 39 37 38 39 32 33 37 43 45 43 44
22 22 16 17 17 17 20 24 21 19 15 11 14 16 20 18 19 34 35 32 31 26 26 25 24 26 29 38 41 41 43 40 37 38 38 30 35 40 42 45 47 50 46 44
12 10 8 9 8 19 19 35 34 33 33 32 31 29 26 26 27 32 30 27 23 23 24 23 24 31 34 32 32 35 37 35 35 31 18 37 40 45 49 51 55 57 53 49
37 45 38 36 30 32 28 24 25 24 24 27 28 27 26 26 26 26 26 26 26 26 26 24 29 29 28 31 32 32 32 25 26 31 32 39 33 51 57 57 47 39 28 26
36 32 28 25 24 24 25 22 20 17 18 24 27 28 32 15 26 10 25 25 25 27 24 29 30 32 32 30 30 20 24 26 27 30 36 43 49 58 46 38 34 25 18 23
20 20 17 23 20 17 20 21 19 17 18 20 22 17 19 21 19 19 20 17 23 22 24 25 29 26 19 18 18 20 23 29 29 27 36 50 52 39 32 27 21 15 18 17
19 17 12 10 8 11 12 17 18 15 14 14 11 11 8 8 14 14 9 20 22 20 16 14 17 20 24 25 26 26 22 36 33 29 43 46 30 28 25 22 18 16 16 17
15 15 12 10 6 5 11 12 11 12 10 9 9 7 5 6 4 29 18 8 9 12 16 22 24 30 15 27 39 41 24 23 36 33 40 23 20 19 17 16 15 14 16 18
Wind_Direction
261 264 262 265 267 268 269 270 269 270 272 271 271 270 269 269 270 274 272 273 273 272 271 271 272 273 273 272 274 270 271 274 276 275 274 274 275 275 273 276 277 274 272 273
259 260 259 260 261 261 261 260 263 266 267 267 271 272 270 268 269 271 270 270 272 273 272 272 271 272 274 272 272 274 275 276 277 278 278 274 275 273 273 273 275 275 271 269
256 257 256 260 258 259 258 262 261 261 263 264 271 274 274 269 269 268 269 270 270 272 272 271 272 270 273 273 274 275 275 275 277 276 274 276 275 275 276 276 278 282 276 277
261 261 260 256 257 259 259 260 260 261 264 262 263 263 265 265 266 266 266 269 265 269 268 269 271 271 270 270 272 273 273 273 274 272 270 271 272 275 277 278 279 276 275 276
256 258 257 256 259 258 259 259 261 260 259 259 260 260 260 262 263 264 265 265 265 264 264 264 266 265 269 267 271 271 272 273 273 274 274 273 270 272 276 277 275 277 277 271
260 254 254 255 252 252 252 253 255 257 256 259 260 259 260 259 260 260 262 263 264 267 265 265 264 264 265 265 267 268 267 268 268 268 268 269 269 269 270 271 271 273 272 273
258 256 256 253 253 252 249 250 250 252 252 253 256 257 257 258 259 260 261 262 264 264 264 263 263 265 264 264 264 265 266 269 271 271 271 270 274 271 273 271 268 274 277 277
257 257 254 250 250 251 248 247 248 248 248 250 250 252 254 257 258 257 259 260 262 265 266 267 267 265 264 265 264 265 266 266 267 268 270 271 273 274 272 273 275 276 275 271
260 251 249 248 246 248 246 246 245 247 247 246 248 248 251 254 254 253 255 257 256 259 262 263 265 266 267 263 264 264 264 266 265 267 269 271 272 271 273 285 279 265 267 270
254 259 247 248 241 243 239 241 242 243 246 247 246 247 248 249 250 253 254 256 256 254 257 259 261 261 259 259 260 264 267 271 273 271 273 269 266 270 269 254 269 270 267 268
249 250 241 243 238 237 239 238 241 240 240 241 242 245 245 247 249 251 253 252 250 252 256 256 259 260 261 264 267 259 262 262 264 266 271 274 263 259 264 257 264 263 264 262
246 241 245 245 246 245 241 238 244 242 242 241 239 240 239 234 243 248 251 251 251 251 252 255 256 262 265 258 248 267 272 259 251 250 244 256 258 253 250 257 260 259 242 237
240 238 239 242 249 249 247 250 251 250 246 243 241 240 238 235 234 235 241 245 248 243 244 247 250 240 244 250 243 229 253 263 262 238 242 241 251 258 259 257 252 246 229 238
232 236 237 242 251 260 267 266 263 265 261 252 238 238 237 236 234 234 234 237 237 235 234 237 236 224 234 231 219 226 249 248 246 238 250 253 244 247 251 250 250 243 239 230
229 235 239 245 253 262 268 265 263 259 263 258 246 239 238 237 235 235 232 230 231 227 228 231 216 221 223 215 218 223 247 251 257 262 253 249 249 252 243 239 228 230 232 229
227 238 244 250 257 265 271 260 259 263 265 261 250 240 241 238 235 231 226 222 224 223 224 227 220 215 215 204 221 230 237 247 251 256 260 256 256 257 250 245 239 225 229 239
229 243 250 255 263 269 264 261 258 257 261 262 258 252 251 248 233 225 220 218 219 220 221 223 219 220 200 203 225 237 247 251 248 256 259 264 266 265 259 244 246 244 239 237
236 248 258 266 270 267 260 264 264 267 266 260 253 241 236 234 230 217 212 211 214 213 216 213 213 208 204 209 217 232 242 248 254 263 265 263 262 261 262 260 255 247 243 245
249 254 258 265 255 257 261 266 264 262 264 268 266 261 242 239 230 212 204 205 205 211 212 209 208 216 211 209 220 233 241 246 251 258 262 264 264 264 266 264 259 255 252 249
250 252 258 238 245 252 255 262 271 274 269 272 263 235 219 184 188 207 192 193 202 207 212 217 221 219 206 210 224 231 243 243 246 257 267 269 271 270 275 272 267 274 259 257
241 240 237 244 252 257 261 265 265 262 252 207 182 147 132 144 158 178 179 188 196 203 209 213 213 211 212 218 223 222 235 248 260 265 268 275 272 273 274 274 274 277 269 274
210 207 204 218 192 114 116 106 108 111 115 117 118 128 139 148 155 162 175 180 188 195 206 202 200 211 217 226 230 237 239 249 255 264 282 276 284 286 285 290 292 292 283 267
99 109 110 109 113 108 111 115 121 129 133 133 135 133 131 139 152 163 166 177 191 204 211 203 215 227 231 230 235 240 239 255 263 274 279 286 279 297 303 300 298 295 275 262
113 114 114 112 113 116 120 122 129 125 131 137 142 145 147 190 164 161 189 202 209 211 219 220 224 231 237 238 238 249 261 270 273 279 287 294 301 307 303 302 294 279 245 266
91 101 89 106 117 121 119 113 115 123 130 148 154 158 163 170 185 199 208 214 218 226 220 224 222 235 257 257 254 257 263 272 274 272 294 300 306 302 300 299 287 262 260 232
74 74 76 113 109 98 113 132 143 140 125 133 131 167 144 151 204 208 189 229 222 236 239 252 261 266 269 267 266 267 256 280 284 289 301 302 298 299 295 293 280 254 226 219
67 60 77 79 82 86 90 89 91 105 113 114 136 226 156 199 216 231 260 260 264 271 278 280 278 277 249 268 272 274 270 281 287 296 295 287 300 304 299 284 266 246 235 234